Location: *
(52.2090°N, 4.1550°W)
Time: 03:08:28
(UTC+00:00)

NOSS 3-1 (C) - Pass Details

Date: 19 July 2019
Orbit: 775 x 1433 km, 63.4° (Epoch: 11 August)

Event Time Altitude Azimuth Distance (km) Brightness Sun altitude
Rises 21:58:16 0° 201° (SSW) 3,324 6.0 -10.5°
Reaches altitude 10° 22:00:38 10° 196° (SSW) 2,447 5.2 -10.7°
Maximum altitude 22:06:00 48° 123° (ESE) 1,174 3.6 -11.2°
Drops below altitude 10° 22:12:14 10° 51° (NE) 2,824 6.0 -11.7°
Sets 22:15:08 0° 46° (NE) 3,887 6.8 -11.9°
